Location: Newark
(39.9581°N, 97.2014°W)
Time: 15:25:18
(UTC+00:00)

Explorer 7 - Visible Passes

Search period start: 21 February 2020 00:00
Search period end: 02 March 2020 00:00
Orbit: 485 x 679 km, 50.3° (Epoch: 21 February)

Date Brightness Start Highest point End Pass type
(mag) Time Alt. Az. Time Alt. Az. Time Alt. Az.
21 Feb 8.7 02:10:02 10° W 02:13:10 23° SW 02:14:21 20° SSW visible
22 Feb 6.7 00:33:48 10° NW 00:37:54 85° NE 00:41:46 10° SE visible
22 Feb 9.4 02:15:56 10° W 02:17:50 13° SW 02:19:42 10° SSW visible
23 Feb 7.4 00:38:46 10° WNW 00:42:46 57° SW 00:46:34 10° SE visible
24 Feb 8.5 00:43:53 10° WNW 00:47:34 33° SW 00:51:04 10° SSE visible
25 Feb 9.4 00:49:17 10° W 00:52:16 20° SW 00:55:08 10° S visible
26 Feb 9.9 00:55:34 10° WSW 00:56:54 11° SW 00:58:12 10° SSW visible
